Theta_e
314 318 322 327 328 327 328 327 325 329 343 335 351 352 355 355 360 363 361 358 360 358 350 345 344 342 336 329 335 342 342 340 335 329 322 326 325 326 325 326 327 332 331 330 331 330 330 329 331
317 321 323 326 328 331 328 327 327 329 331 331 346 352 354 355 354 358 361 362 361 359 350 346 344 341 336 329 333 341 342 340 335 333 325 325 326 326 326 326 328 332 333 332 332 330 329 330 329
321 323 326 327 327 331 328 327 327 327 331 329 344 346 348 349 353 361 363 362 361 360 355 345 344 342 338 334 329 339 341 340 337 335 332 327 326 327 327 326 328 331 331 331 331 329 328 329 329
321 322 323 327 325 323 325 325 326 329 333 334 341 345 348 348 354 360 363 362 361 358 356 345 343 342 341 338 333 329 338 340 339 337 337 336 331 327 328 327 328 330 329 328 325 325 326 328 327
319 321 325 326 323 323 322 323 326 330 333 337 338 342 336 340 344 352 360 362 359 356 356 346 344 343 342 340 337 333 327 333 338 339 339 339 338 334 328 329 329 329 330 326 324 324 325 325 325
321 322 324 325 322 321 323 322 325 329 331 334 337 334 328 325 336 341 351 359 359 358 356 354 345 344 343 341 338 336 332 326 326 331 337 339 339 338 335 329 330 331 328 324 324 325 326 326 326
321 323 323 324 323 323 322 321 323 326 326 324 328 328 324 321 331 336 341 347 353 357 358 357 353 346 345 344 340 337 335 332 327 326 328 333 338 338 337 333 330 332 331 328 327 329 328 327 326
319 322 322 322 323 323 321 322 321 322 322 322 322 325 324 321 326 333 334 339 341 347 349 356 354 357 348 348 343 340 336 335 333 328 327 330 332 334 336 335 330 331 332 331 331 329 328 329 327
318 321 322 322 322 323 321 322 321 320 321 320 320 320 320 320 320 323 329 333 336 340 343 346 349 354 356 355 353 343 340 337 335 334 328 328 328 331 333 334 332 331 332 332 331 330 328 329 329
322 322 322 321 322 322 321 321 320 321 321 321 320 319 320 320 321 321 321 322 326 333 337 343 346 350 353 352 354 352 348 341 338 335 335 328 338 341 339 339 330 330 331 332 332 332 330 329 334
321 322 321 320 320 320 320 319 319 320 322 320 319 319 319 320 320 320 320 320 320 320 321 332 341 350 351 349 350 351 353 354 350 342 341 339 340 341 338 340 334 329 330 332 332 331 330 337 336
321 320 320 320 319 320 320 319 319 319 320 318 318 318 318 319 320 320 320 319 319 320 320 321 323 338 345 341 346 348 348 352 352 352 343 343 342 343 341 338 339 339 338 339 339 339 341 341 338
321 320 319 319 319 319 319 319 319 319 318 317 318 318 319 319 319 319 319 320 320 320 319 320 318 316 324 345 340 342 348 349 352 353 352 346 341 343 343 341 340 339 339 338 339 340 341 341 337
319 319 319 319 319 319 319 319 318 319 318 318 318 319 319 319 319 318 319 320 322 317 316 316 315 316 317 323 320 321 345 346 351 353 352 349 347 344 338 343 343 341 340 338 339 340 341 340 338
319 320 320 320 319 319 318 320 319 319 317 318 318 318 318 318 319 320 321 322 323 318 314 314 314 314 316 316 322 322 341 343 347 347 355 354 349 348 347 346 344 343 342 340 339 340 341 339 338
319 320 320 321 319 318 318 318 320 318 318 318 318 318 318 318 321 322 322 323 324 319 318 317 317 315 315 316 318 334 337 343 344 344 346 351 350 349 349 347 345 344 343 342 340 341 340 339 337
321 320 320 319 319 319 319 319 319 318 318 317 317 317 318 320 321 323 323 323 324 322 320 319 319 319 317 316 316 326 334 340 343 342 343 348 342 342 348 347 347 347 344 342 341 341 341 339 339
320 320 320 320 320 320 319 319 319 317 317 316 316 316 317 320 322 323 323 322 321 320 318 320 321 321 320 318 317 319 332 340 341 342 342 347 344 339 342 347 343 343 343 343 342 342 341 340 340
321 321 321 321 320 319 319 319 319 317 316 316 316 317 319 320 322 322 322 321 321 319 317 316 317 318 321 325 322 326 330 336 331 322 345 345 329 332 334 340 347 343 339 343 344 344 343 342 341
321 321 321 321 319 319 319 319 319 317 316 316 317 317 320 321 322 322 321 320 319 319 315 314 314 313 312 317 327 322 334 334 334 338 342 344 345 326 332 334 337 346 344 341 341 344 342 342 342
321 321 321 320 319 319 319 318 317 317 316 316 317 319 320 320 321 321 320 320 319 318 317 315 313 312 311 309 318 327 328 338 338 338 339 342 342 340 326 330 332 345 343 343 341 340 340 342 343
321 320 319 319 320 319 318 317 317 317 317 318 317 319 320 321 321 320 320 319 318 317 316 316 314 313 313 309 308 310 328 331 335 336 336 339 343 343 345 340 334 342 343 343 341 344 337 336 343
320 318 318 318 319 318 318 318 318 318 317 317 318 319 320 320 320 320 319 318 317 317 316 316 316 314 312 312 311 309 317 324 330 334 337 339 341 345 344 345 345 343 333 343 343 335 343 341 336
318 318 319 319 318 319 318 318 317 317 317 317 319 319 319 320 320 319 319 317 317 317 317 316 316 315 313 312 312 311 308 309 321 331 335 337 338 340 344 344 346 343 341 339 331 331 332 343 342
318 320 324 319 321 321 318 318 319 318 317 317 317 317 318 319 319 318 317 317 317 316 316 316 316 315 312 310 311 310 307 310 310 327 332 335 336 336 339 343 343 344 343 342 342 337 331 327 341
318 319 320 322 319 317 317 317 319 318 318 318 317 318 318 316 317 317 317 316 316 316 316 316 315 313 312 309 308 307 307 312 314 323 331 334 334 336 338 343 342 342 336 339 342 337 326 333 327
320 319 319 322 320 320 319 318 318 318 317 317 317 318 317 316 317 317 316 316 317 316 315 314 313 313 313 309 309 309 312 313 313 311 323 332 336 336 339 342 342 341 329 327 321 326 319 320 326
318 318 320 322 323 320 316 317 317 318 317 317 317 317 316 317 317 317 316 316 316 315 313 312 312 312 312 312 313 314 315 315 316 314 320 331 335 337 337 340 342 342 331 323 320 320 319 320 334
317 319 318 319 320 323 320 318 317 318 318 318 317 317 316 316 317 316 316 315 315 313 311 311 311 311 312 312 312 313 314 315 316 317 319 330 334 337 338 338 339 339 336 323 321 320 320 322 334
317 317 317 326 320 319 323 323 318 318 318 317 317 317 317 316 316 315 315 314 313 310 310 310 311 311 311 311 311 312 314 315 315 317 321 329 333 337 339 338 338 339 338 334 323 321 321 321 326
Wind_Speed
2 0 1 3 6 6 5 5 3 6 4 9 5 7 14 15 10 5 4 6 2 12 14 13 12 10 8 8 11 17 19 17 16 16 19 20 20 19 19 18 16 14 14 12 10 9 10 8 8
2 2 2 5 7 8 7 5 7 6 5 5 3 3 9 15 12 12 4 3 5 12 14 14 12 10 8 8 12 16 18 17 17 16 17 19 19 19 19 18 15 13 12 11 9 8 8 7 6
7 3 5 3 5 5 5 8 9 3 3 2 4 9 6 7 13 7 7 5 7 12 13 13 11 10 9 8 11 15 17 17 16 16 17 18 18 18 18 18 16 13 12 11 9 8 7 6 4
3 4 5 2 5 7 7 9 9 2 4 4 4 10 12 12 7 7 7 6 7 10 11 10 9 8 8 8 9 13 17 17 17 17 17 16 17 18 18 17 16 15 12 12 11 9 7 5 4
2 6 5 8 2 4 6 10 8 8 2 4 3 14 15 13 11 10 8 8 8 8 8 10 10 10 9 8 8 9 13 16 18 18 17 17 17 18 18 18 17 16 13 13 11 9 7 6 5
7 5 7 11 10 3 7 8 7 9 10 7 13 13 12 10 10 9 9 8 7 7 8 7 10 10 10 10 10 10 11 13 17 18 19 19 18 18 19 19 18 16 14 13 12 9 8 7 7
2 5 1 8 10 9 6 5 8 5 9 11 3 7 8 10 10 7 6 6 6 5 5 4 6 10 11 11 11 11 11 12 14 17 19 20 20 20 20 20 20 17 15 14 12 11 9 8 8
1 1 8 3 8 5 6 3 5 11 10 6 4 3 7 8 8 5 4 2 2 2 0 1 3 5 9 10 13 13 13 14 14 15 18 19 20 21 22 22 22 19 16 15 14 12 11 10 9
1 4 6 4 5 5 4 4 7 4 5 8 7 6 3 6 6 5 3 1 1 2 4 3 4 6 8 9 12 15 16 16 16 17 18 18 19 20 23 23 24 22 19 17 16 14 13 12 11
3 2 5 4 5 3 3 5 4 1 3 7 7 9 8 6 5 5 5 3 4 4 5 6 7 8 7 8 11 13 14 18 19 19 19 19 16 16 18 20 26 24 22 21 19 17 15 13 9
6 6 5 5 3 4 4 5 4 3 3 5 6 7 7 6 6 5 5 6 5 5 6 7 9 9 9 10 10 11 12 14 16 20 19 18 16 17 19 18 23 26 26 22 22 21 18 12 11
8 5 2 3 1 2 4 2 3 2 4 2 3 4 5 6 7 8 8 8 8 9 9 8 8 11 13 13 14 12 15 15 16 17 22 20 20 18 18 19 17 19 19 20 18 16 15 15 13
4 4 3 4 3 1 4 1 5 6 1 2 3 4 7 8 8 8 11 13 14 14 14 12 13 15 15 17 17 16 16 17 17 17 19 21 24 20 18 19 20 19 19 19 19 18 16 14 14
2 1 4 3 4 2 7 4 6 5 4 7 7 9 10 10 10 11 12 14 17 21 22 22 21 20 18 18 24 22 18 18 18 18 19 21 20 24 26 20 20 20 19 19 19 18 17 15 13
1 8 6 3 2 2 4 12 12 2 7 9 10 13 13 13 12 12 12 13 15 21 26 27 27 25 25 22 22 25 20 20 20 20 21 22 23 22 22 20 20 19 19 19 19 19 17 15 14
3 5 5 5 3 6 6 13 4 0 8 12 16 16 13 13 11 9 10 11 11 15 19 21 25 28 28 27 25 21 22 22 21 20 21 24 26 26 24 22 21 19 18 18 20 19 18 16 15
2 6 6 6 1 6 7 12 12 13 14 18 20 19 12 11 7 5 5 6 8 12 16 18 21 24 28 28 28 25 24 25 25 23 22 23 25 26 24 23 22 20 18 19 19 19 18 17 17
8 10 8 10 6 10 15 16 14 19 18 21 21 19 10 9 3 0 2 4 7 9 11 11 13 18 23 26 27 26 23 25 28 26 25 25 23 24 24 23 24 25 20 21 20 21 19 18 17
9 11 12 11 12 11 15 17 18 22 23 16 12 6 7 8 4 1 2 4 6 8 11 14 16 19 15 14 16 18 24 26 30 34 28 27 28 27 27 24 23 25 26 23 22 21 21 18 18
11 13 13 12 5 13 18 22 19 15 13 10 7 6 8 7 7 3 0 3 6 9 12 15 15 19 23 21 16 17 17 21 25 26 27 27 26 31 31 25 24 23 25 29 29 24 23 23 21
14 11 13 14 16 18 19 20 9 6 8 8 6 6 7 8 6 5 3 3 6 9 12 15 19 21 21 25 19 15 14 18 21 23 27 28 29 30 31 30 26 23 26 27 27 28 29 23 24
14 8 8 13 16 15 15 12 15 6 8 10 11 9 9 9 8 6 5 5 6 9 11 13 17 23 24 27 25 20 13 16 20 23 24 28 25 27 26 28 25 24 22 22 26 26 23 24 22
12 6 14 16 17 18 18 8 3 5 11 11 7 10 11 11 9 9 7 6 7 11 14 15 18 23 26 30 31 25 17 14 14 22 24 26 27 26 27 27 26 28 25 21 19 21 26 25 23
8 14 16 11 9 10 4 7 11 6 6 7 8 9 9 10 11 11 11 10 12 15 16 18 20 25 29 29 34 30 26 22 18 15 22 26 26 27 28 28 28 29 26 23 21 21 19 25 26
6 11 6 5 6 11 3 8 15 15 11 11 11 10 10 11 14 15 15 16 17 18 19 20 22 28 31 33 28 29 31 26 23 18 17 22 26 26 27 28 30 29 28 22 19 19 21 22 28
13 8 5 6 9 16 18 11 4 4 4 7 8 9 8 12 15 14 16 18 21 20 20 21 24 27 30 35 34 36 33 26 22 19 19 18 23 26 26 27 27 28 27 25 22 21 23 22 26
2 7 6 8 16 14 12 13 13 15 12 11 15 10 15 18 11 17 18 18 18 20 22 23 24 26 27 33 33 32 30 27 25 25 23 20 20 24 25 26 28 28 25 25 26 24 23 25 27
10 5 5 4 5 13 13 21 16 6 3 7 12 14 17 12 16 20 21 19 20 21 24 24 24 26 26 26 26 25 26 26 24 25 25 21 21 21 25 27 27 27 27 29 30 25 23 25 28
7 10 10 9 11 15 18 11 14 15 17 17 11 12 23 23 18 21 22 23 25 26 26 27 26 26 26 24 24 25 25 25 23 24 24 22 21 22 24 27 27 27 29 32 29 26 22 24 28
11 14 16 10 18 18 16 22 18 19 17 33 20 23 21 19 21 24 27 27 28 27 28 28 26 25 24 25 24 25 26 25 23 23 22 21 22 22 23 25 27 27 25 25 28 24 23 27 30
Wind_Direction
150 121 213 254 241 241 117 65 335 347 134 30 47 26 67 41 20 54 77 151 135 168 180 178 176 174 174 163 164 177 180 181 174 169 172 176 177 176 173 171 167 162 162 166 160 149 141 128 117
136 144 248 257 261 205 112 18 12 8 359 349 84 122 73 70 56 79 73 59 121 167 175 180 179 174 171 165 168 179 185 184 180 174 175 182 185 182 181 180 175 170 171 177 175 169 157 147 133
96 134 264 301 279 341 92 25 10 15 16 344 119 56 47 33 48 64 48 68 120 152 165 183 182 182 176 173 173 185 191 192 191 185 185 190 192 190 188 189 187 183 184 188 192 184 179 169 164
99 230 185 254 83 53 50 30 358 104 100 53 80 80 78 47 57 57 59 81 117 146 162 181 189 194 191 189 184 186 196 200 201 200 198 198 198 197 196 197 197 195 198 198 200 194 197 201 211
173 245 198 162 188 102 59 27 15 67 54 102 148 99 84 57 61 60 59 82 128 146 164 186 192 198 204 207 206 201 199 205 210 212 212 210 207 206 204 204 204 204 206 204 204 207 210 224 237
207 264 209 166 143 128 69 29 30 58 81 66 99 102 77 62 60 59 67 80 110 141 155 205 204 208 212 214 215 216 215 213 215 218 219 218 217 215 213 211 211 210 210 207 211 217 226 237 247
261 241 219 135 142 111 43 25 36 42 46 48 112 101 95 52 50 55 63 65 87 111 144 191 218 223 221 222 223 225 226 225 224 224 224 224 222 222 220 218 216 216 213 213 214 220 231 241 252
21 255 169 171 184 95 46 53 23 25 51 78 27 64 73 22 32 42 55 71 77 59 50 209 214 246 242 242 234 232 231 231 231 230 231 229 227 225 223 221 220 219 218 215 215 221 232 242 253
266 217 140 117 191 101 51 352 45 39 53 58 68 52 19 8 30 35 16 332 290 296 267 267 256 245 232 227 252 239 238 236 234 233 230 229 227 225 224 222 222 221 222 221 220 227 235 245 252
333 112 77 65 75 23 352 332 0 305 100 89 77 61 57 56 45 38 28 338 303 286 275 263 267 258 254 244 239 257 243 243 239 236 234 226 217 219 214 222 225 221 223 227 231 234 238 242 243
26 85 120 113 42 339 327 275 318 266 154 71 56 37 32 32 41 29 2 1 351 324 300 276 275 272 255 260 251 248 245 241 238 234 230 228 221 221 218 217 227 224 226 230 238 239 239 234 226
112 82 35 65 83 270 262 9 216 277 74 62 16 5 347 346 351 351 351 345 338 330 328 322 280 270 267 254 259 245 249 243 239 235 237 225 223 221 218 219 224 224 224 225 226 232 228 225 231
55 84 94 101 105 179 179 117 312 210 239 309 304 298 316 321 321 321 327 325 325 321 312 312 293 282 272 259 252 254 247 253 242 239 234 229 233 224 225 222 219 221 223 227 224 224 229 229 233
49 90 140 99 61 148 249 272 240 223 246 274 274 295 301 307 310 310 309 312 314 302 296 289 286 280 277 272 265 265 252 245 247 239 239 236 232 235 234 228 226 222 221 223 226 227 226 227 229
213 239 187 165 350 141 297 253 228 218 274 265 266 282 285 292 295 303 311 314 313 302 292 288 279 269 265 263 262 258 247 248 240 242 239 238 241 230 228 230 228 227 224 220 221 223 224 225 230
277 246 291 87 304 129 291 279 234 4 264 273 277 276 278 285 294 301 320 322 321 306 299 292 286 275 265 258 256 253 244 242 242 241 241 245 241 247 245 231 229 228 221 223 220 221 225 228 231
145 331 312 316 137 307 276 302 285 284 281 280 279 276 275 272 277 310 340 348 354 330 311 299 294 287 272 263 257 251 247 240 238 240 238 240 245 250 257 242 228 227 222 220 220 220 220 225 224
326 316 308 302 342 314 290 282 293 292 282 280 282 279 265 250 266 84 52 42 34 30 19 6 335 307 286 274 261 254 247 242 237 234 237 236 238 252 255 251 238 226 222 224 220 218 220 218 224
308 297 291 297 327 295 294 293 290 295 295 288 284 273 228 246 231 161 75 40 30 20 19 21 16 12 348 325 275 261 250 249 247 243 234 234 247 245 249 251 243 234 231 222 227 220 214 218 212
294 289 287 309 277 309 300 295 291 281 279 297 282 248 228 225 217 208 42 9 12 7 1 2 7 12 13 1 339 263 249 255 249 247 237 235 235 245 242 244 248 234 233 234 227 226 218 215 210
288 286 297 310 310 287 291 286 275 220 264 250 228 264 243 235 226 231 268 331 344 347 347 346 350 357 359 359 352 344 271 256 252 246 237 236 234 238 245 246 241 234 236 233 235 237 228 218 215
294 13 302 287 294 295 318 291 285 213 247 226 262 248 226 218 220 236 250 298 325 336 338 339 336 336 341 348 350 343 337 274 255 253 244 237 242 232 234 237 238 228 230 231 240 240 224 223 224
305 323 295 291 288 288 274 238 113 184 260 251 264 224 232 234 242 252 259 287 313 325 325 329 330 333 325 324 333 338 319 310 287 258 251 242 240 242 232 232 230 233 229 229 227 241 239 234 220
317 285 285 282 269 259 277 239 285 292 295 266 229 239 236 249 248 258 265 282 299 311 314 319 324 327 326 323 323 323 324 305 300 283 251 245 242 240 237 228 229 234 230 225 232 234 241 240 236
262 303 308 277 219 273 107 262 260 286 275 264 261 265 255 262 266 264 273 287 297 308 311 315 317 319 320 319 315 316 315 305 293 293 280 250 242 237 233 229 221 229 232 225 226 233 237 243 238
290 293 262 289 302 304 303 268 357 353 293 270 257 259 259 289 283 284 286 288 296 299 305 309 312 313 315 314 313 310 307 301 282 284 275 265 246 237 234 230 222 221 228 229 229 233 240 242 244
88 249 358 299 277 270 267 262 216 234 262 266 262 257 275 288 293 298 298 295 295 299 305 307 309 308 309 309 307 305 301 295 277 268 274 273 261 237 231 229 224 221 230 232 228 236 249 253 245
252 344 247 210 276 287 285 310 298 310 283 267 299 291 321 299 290 299 302 299 298 301 303 304 303 303 304 303 301 298 294 292 282 268 266 271 258 247 228 228 225 217 218 223 227 241 246 249 244
236 226 224 287 275 272 288 280 341 326 302 294 284 332 308 303 312 305 303 300 302 302 304 305 303 302 299 298 296 293 291 290 281 272 261 269 259 247 234 223 223 216 215 221 227 237 248 244 241
290 280 285 263 275 269 268 273 295 305 2 332 327 324 304 312 305 303 301 301 301 302 306 305 303 303 299 297 294 289 288 290 280 276 266 263 258 240 233 223 216 215 216 220 226 231 247 244 240